Location: Cisewo
(53.3833°N, 14.9000°E)
Time: 11:41:51
(UTC+00:00)

SPOT 5 - Pass Details

Date: 18 April 2021
Orbit: 624 x 814 km, 98.2° (Epoch: 14 May)

Event Time Altitude Azimuth Distance (km) Brightness Sun altitude
Exits shadow 21:19:36 25° 224° (SW) 1,337 4.1 -22.0°
Maximum altitude 21:21:19 34° 265° (W) 1,126 4.0 -22.2°
Drops below altitude 10° 21:25:40 10° 330° (NNW) 2,188 6.5 -22.4°
Sets 21:28:12 0° 340° (NNW) 3,146 7.7 -22.6°
